[[{"header":{"parameterUnit":"m.s-1","parameterCategory":1,"la1":30.2991,"la2":30.254,"lo1":-89.0895,"lo2":-89.0444,"dy":0.0017,"dx":0.0017,"nx":28,"ny":28,"refTime":"2024-04-23T03:00:00:Z","depth":0,"parameterNumber":2,"parameterNumberName":"U-component_of_WINDS"},"data":[0,0,0,0,0,0,0,0,0,0,0,0,0,0,0,0,0,0,0,0,0,0,0,0,0,0,0,0,0,0,0,0,0,0,0,0,0,0,0,0,0,0,0,0,0,0,0,0,0,0,0,0,0,0,0,0,0,0,-0.1837,-0.1837,0,-0.1811,-0.1811,-0.1811,-0.1797,-0.1797,-0.1797,-0.1797,-0.1769,-0.1769,-0.1768,0,0,0,0,0,0,0,0,0,0,0,0,0,-0.1874,-0.1873,-0.1837,-0.1837,-0.1837,-0.1811,-0.1811,-0.1811,-0.1797,-0.1797,-0.1797,-0.1797,-0.177,-0.1769,-0.1768,0,0,0,0,0,0,0,0,0,0,0,0,0,-0.1854,-0.1873,-0.1838,-0.1827,-0.1826,-0.1812,-0.1811,-0.1811,-0.1797,-0.1797,-0.1797,-0.1797,-0.177,-0.1769,-0.1768,-0.1762,0,0,-0.1765,-0.1764,0,0,0,0,0,0,0,0,-0.1855,-0.1853,-0.1829,-0.1828,-0.1826,-0.1808,-0.1814,-0.1794,-0.1797,-0.1808,-0.1797,-0.1797,-0.1782,-0.178,-0.1775,-0.176,-0.1759,-0.1764,-0.1764,-0.1763,-0.1763,0,0,0,0,0,0,0,-0.1856,-0.1854,-0.1827,-0.1829,-0.1827,-0.1823,-0.182,-0.181,-0.1795,-0.1807,-0.1806,-0.1803,-0.1781,-0.1776,-0.1774,-0.1759,-0.1764,-0.1764,-0.1763,-0.1762,-0.1736,-0.1736,0,0,0,0,0,0,-0.186,-0.1855,-0.1828,-0.1826,-0.1841,-0.1822,-0.1819,-0.1814,-0.1796,-0.1793,-0.1803,-0.1803,-0.1778,-0.1776,-0.1773,-0.1764,-0.1763,-0.1762,-0.1762,-0.1736,-0.1736,-0.1736,0,0,0,0,0,0,-0.1861,-0.1857,-0.1829,-0.184,-0.1836,-0.1822,-0.1816,-0.1813,-0.1808,-0.1793,-0.179,-0.1801,-0.1778,-0.1775,-0.1764,-0.1763,-0.1762,-0.1761,-0.1737,-0.1736,-0.1736,-0.1747,0,0,0,0,0,0,-0.1862,-0.1858,-0.1856,-0.184,-0.1836,-0.1821,-0.1816,-0.1813,-0.1806,-0.1805,-0.179,-0.1787,-0.1778,-0.1766,-0.1763,-0.1762,-0.176,-0.1737,-0.1737,-0.1736,-0.1747,-0.1747,-0.1748,0,0,0,0,0,-0.1863,-0.186,-0.1856,-0.1853,-0.1833,-0.1821,-0.1818,-0.1808,-0.1806,-0.1804,-0.1794,-0.1787,-0.1764,-0.1765,-0.1762,-0.176,-0.1737,-0.1737,-0.1736,-0.1746,-0.1747,-0.1748,0,0,0,0,0,0,-0.1875,-0.1858,-0.1853,-0.1845,-0.1835,-0.1819,-0.1816,-0.1809,-0.1799,-0.1799,-0.1786,-0.1783,-0.1773,-0.1765,-0.1767,-0.1752,-0.1749,-0.1749,-0.1758,-0.1759,-0.1759,-0.1761,-0.1759,0,0,0,0,0,-0.1877,-0.1869,-0.1854,-0.1848,-0.1843,-0.183,-0.1825,-0.1818,-0.1806,-0.1802,-0.1791,-0.178,-0.177,-0.1764,-0.1754,-0.1745,-0.1741,-0.1742,-0.1743,-0.1743,-0.1743,-0.1737,-0.1737,-0.1736,-0.1736,-0.1736,0,0,-0.188,-0.187,-0.1866,-0.185,-0.1842,-0.1833,-0.1827,-0.1818,-0.1812,-0.1801,-0.179,-0.1782,-0.1769,-0.1759,-0.1754,-0.1752,-0.1742,-0.1743,-0.1744,-0.1743,-0.1737,-0.1737,-0.1737,-0.1736,-0.1736,-0.1736,0,0,-0.1883,-0.1874,-0.1868,-0.1859,-0.1846,-0.1837,-0.1836,-0.1821,-0.1815,-0.1804,-0.1796,-0.1787,-0.177,-0.1761,-0.1754,-0.1752,-0.1746,-0.1749,-0.1752,-0.1746,-0.1746,-0.1746,-0.1745,-0.1745,-0.1749,-0.1749,-0.1749,0,-0.1889,-0.1876,-0.1866,-0.1858,-0.1851,-0.184,-0.1833,-0.1825,-0.1809,-0.1805,-0.1803,-0.1781,-0.1771,-0.1759,-0.1758,-0.1753,-0.1751,-0.1751,-0.1747,-0.1747,-0.1747,-0.1746,-0.1745,-0.1749,-0.1749,-0.1749,-0.1749,0,-0.1884,-0.1876,-0.1872,-0.1857,-0.185,-0.1843,-0.183,-0.1824,-0.1817,-0.1808,-0.1797,-0.1785,-0.1772,-0.1769,-0.1762,-0.1755,-0.1754,-0.175,-0.1747,-0.1748,-0.1746,-0.1746,-0.175,-0.175,-0.1749,-0.1749,0,0,-0.1894,-0.1873,-0.1872,-0.1864,-0.1849,-0.1842,-0.1833,-0.1821,-0.1816,-0.1805,-0.1797,-0.1783,-0.1779,-0.1771,-0.1763,-0.1758,-0.1756,-0.1754,-0.1754,-0.1755,-0.1747,-0.175,-0.175,-0.1752,-0.1752,-0.1751,-0.1748,0,-0.1894,-0.1879,-0.1869,-0.1858,-0.185,-0.1839,-0.1831,-0.1821,-0.1812,-0.1803,-0.1793,-0.1783,-0.1779,-0.1774,-0.1768,-0.1758,-0.1754,-0.1758,-0.1744,-0.1744,-0.1748,-0.1749,-0.1753,-0.175,-0.1747,-0.1747,-0.1747,0,-0.1892,-0.1882,-0.187,-0.1855,-0.1851,-0.1844,-0.1832,-0.1824,-0.1811,-0.1805,-0.1795,-0.1787,-0.1777,-0.1775,-0.176,-0.1763,-0.1756,-0.175,-0.175,-0.1748,-0.1746,-0.1748,-0.1749,-0.1749,-0.1746,-0.1746,-0.1746,0,-0.19,-0.1883,-0.1874,-0.1868,-0.185,-0.1846,-0.1838,-0.1825,-0.1818,-0.1806,-0.1802,-0.1789,-0.1782,-0.1772,-0.1761,-0.176,-0.1747,-0.1744,-0.1742,-0.1742,-0.174,-0.174,-0.174,-0.1736,-0.1736,-0.1736,-0.1736,0,-0.1901,-0.1894,-0.1877,-0.1871,-0.1863,-0.1851,-0.1843,-0.1834,-0.1822,-0.1814,-0.1804,-0.1796,-0.1781,-0.1772,-0.1762,-0.1752,-0.1749,-0.1743,-0.1741,-0.1744,-0.1745,-0.174,-0.1739,-0.1736,-0.1736,-0.1736,-0.1736,0,-0.1909,-0.1897,-0.1886,-0.187,-0.1865,-0.186,-0.1846,-0.1839,-0.183,-0.182,-0.1816,-0.1801,-0.1789,-0.1776,-0.176,-0.1754,-0.1743,-0.174,-0.1748,-0.1746,-0.1745,-0.1745,-0.1742,-0.1741,-0.1737,-0.1737,-0.1737,0,-0.191,-0.1905,-0.1888,-0.1882,-0.1874,-0.1865,-0.1857,-0.1844,-0.1837,-0.1822,-0.1817,-0.1804,-0.1793,-0.1775,-0.1762,-0.1749,-0.1745,-0.1745,-0.1743,-0.1746,-0.1745,-0.1745,-0.1744,-0.1746,-0.1746,-0.1746,-0.1746,0,-0.1914,-0.1908,-0.1899,-0.1886,-0.1878,-0.1868,-0.1857,-0.1852,-0.1837,-0.1829,-0.1817,-0.1809,-0.1792,-0.1779,-0.1765,-0.1756,-0.1748,-0.1746,-0.1745,-0.1749,-0.1753,-0.175,-0.1749,-0.1747,-0.1747,-0.1746,-0.1746,-0.1746,-0.1919,-0.1913,-0.19,-0.1889,-0.188,-0.187,-0.1863,-0.1852,-0.1842,-0.1827,-0.182,-0.1808,-0.1794,-0.1774,-0.1765,-0.1755,-0.1752,-0.1751,-0.175,-0.175,-0.1751,-0.1755,-0.1752,-0.1752,-0.1752,-0.1752,-0.1752,0,-0.1922,-0.1913,-0.1903,-0.1888,-0.1879,-0.1873,-0.186,-0.1853,-0.1843,-0.1831,-0.182,-0.1806,-0.1793,-0.1779,-0.1765,-0.1759,-0.1756,-0.1756,-0.1757,-0.1754,-0.1754,-0.1756,-0.176,-0.176,-0.176,-0.176,-0.176,-0.176,-0.1922,-0.1912,-0.1905,-0.189,-0.1881,-0.1869,-0.1862,-0.1853,-0.1843,-0.1827,-0.1817,-0.1808,-0.1795,-0.178,-0.1767,-0.1764,-0.1759,-0.1761,-0.1756,-0.1755,-0.1755,-0.1754,-0.1756,-0.176,-0.176,-0.1757,-0.1757,-0.1757]},{"header":{"parameterUnit":"m.s-1","parameterCategory":1,"la1":30.2991,"la2":30.254,"lo1":-89.0895,"lo2":-89.0444,"dy":0.0017,"dx":0.0017,"nx":28,"ny":28,"refTime":"2024-04-23T03:00:00:Z","depth":0,"parameterNumber":3,"parameterNumberName":"V-component_of_WINDS"},"data":[0,0,0,0,0,0,0,0,0,0,0,0,0,0,0,0,0,0,0,0,0,0,0,0,0,0,0,0,0,0,0,0,0,0,0,0,0,0,0,0,0,0,0,0,0,0,0,0,0,0,0,0,0,0,0,0,0,0,-2.7792,-2.7793,0,-2.7879,-2.788,-2.7881,-2.7932,-2.7932,-2.7932,-2.7932,-2.8017,-2.8019,-2.8021,0,0,0,0,0,0,0,0,0,0,0,0,0,-2.7665,-2.7667,-2.7792,-2.7793,-2.7794,-2.7879,-2.788,-2.7881,-2.7932,-2.7932,-2.7932,-2.7932,-2.8016,-2.8019,-2.8021,0,0,0,0,0,0,0,0,0,0,0,0,0,-2.7733,-2.7668,-2.7791,-2.7829,-2.7833,-2.7879,-2.788,-2.7882,-2.7931,-2.7932,-2.7932,-2.7932,-2.8016,-2.8019,-2.8022,-2.8035,0,0,-2.8031,-2.8033,0,0,0,0,0,0,0,0,-2.7729,-2.7738,-2.7823,-2.7827,-2.7832,-2.7895,-2.7867,-2.7933,-2.7931,-2.7894,-2.7932,-2.7933,-2.7976,-2.7982,-2.7998,-2.8039,-2.8042,-2.8032,-2.8033,-2.8035,-2.8036,0,0,0,0,0,0,0,-2.7724,-2.7734,-2.7826,-2.7824,-2.7829,-2.7841,-2.7851,-2.788,-2.7932,-2.7897,-2.7901,-2.7911,-2.7978,-2.7995,-2.8,-2.8044,-2.8031,-2.8034,-2.8036,-2.8037,-2.8103,-2.8102,0,0,0,0,0,0,-2.7714,-2.773,-2.7823,-2.7829,-2.778,-2.7843,-2.7854,-2.7874,-2.7932,-2.7941,-2.7911,-2.7913,-2.7989,-2.7997,-2.8003,-2.8025,-2.8035,-2.8038,-2.8039,-2.8103,-2.8103,-2.8102,0,0,0,0,0,0,-2.7711,-2.7722,-2.782,-2.7781,-2.7794,-2.7845,-2.7867,-2.7876,-2.7892,-2.7942,-2.7951,-2.7918,-2.799,-2.7999,-2.8028,-2.8028,-2.8039,-2.8042,-2.8103,-2.8103,-2.8102,-2.8065,0,0,0,0,0,0,-2.7707,-2.7721,-2.7726,-2.778,-2.7796,-2.7843,-2.7867,-2.7877,-2.7898,-2.7902,-2.7951,-2.796,-2.7991,-2.8023,-2.8031,-2.8033,-2.8044,-2.8103,-2.8103,-2.8103,-2.8067,-2.8064,-2.8061,0,0,0,0,0,-2.7703,-2.7711,-2.7727,-2.7737,-2.7804,-2.7843,-2.7852,-2.7888,-2.7898,-2.7904,-2.7937,-2.7958,-2.8027,-2.8025,-2.8035,-2.8037,-2.8103,-2.8103,-2.8103,-2.8068,-2.8064,-2.8062,0,0,0,0,0,0,-2.7653,-2.7718,-2.7737,-2.7763,-2.7797,-2.7851,-2.786,-2.7883,-2.7914,-2.7916,-2.7959,-2.797,-2.7995,-2.8019,-2.8016,-2.8055,-2.8067,-2.8069,-2.8038,-2.8035,-2.8032,-2.8026,-2.8047,0,0,0,0,0,-2.7646,-2.7673,-2.7728,-2.7746,-2.7762,-2.7808,-2.7826,-2.7852,-2.7889,-2.7903,-2.7938,-2.7971,-2.8001,-2.8019,-2.8049,-2.8071,-2.8083,-2.8077,-2.8075,-2.8072,-2.8073,-2.8088,-2.8087,-2.8101,-2.8101,-2.8101,0,0,-2.763,-2.7669,-2.7683,-2.7737,-2.7767,-2.7793,-2.782,-2.7846,-2.7867,-2.7907,-2.7937,-2.7963,-2.8004,-2.803,-2.8043,-2.8051,-2.8072,-2.8072,-2.807,-2.8072,-2.8088,-2.8087,-2.8085,-2.8101,-2.8101,-2.8101,0,0,-2.7615,-2.7647,-2.7666,-2.7696,-2.7742,-2.7773,-2.7778,-2.783,-2.785,-2.7881,-2.7913,-2.7937,-2.7986,-2.8014,-2.8035,-2.8034,-2.8056,-2.8043,-2.8029,-2.8043,-2.8042,-2.8041,-2.8042,-2.8042,-2.8043,-2.8043,-2.8043,0,-2.7588,-2.7631,-2.7673,-2.7699,-2.7722,-2.7762,-2.7782,-2.7809,-2.7861,-2.7876,-2.7885,-2.795,-2.7979,-2.8014,-2.8014,-2.8029,-2.8036,-2.8037,-2.8039,-2.8039,-2.8039,-2.804,-2.804,-2.8041,-2.8042,-2.8042,-2.8042,0,-2.7598,-2.7627,-2.7637,-2.769,-2.7714,-2.7736,-2.7781,-2.7801,-2.7825,-2.7855,-2.7887,-2.7925,-2.7964,-2.7974,-2.7997,-2.8012,-2.8016,-2.8031,-2.8045,-2.8035,-2.8037,-2.8037,-2.8039,-2.8039,-2.804,-2.804,0,0,-2.7552,-2.763,-2.7633,-2.7659,-2.7713,-2.7736,-2.7761,-2.7802,-2.7818,-2.7853,-2.7876,-2.7918,-2.7934,-2.7957,-2.7984,-2.7996,-2.7995,-2.801,-2.8012,-2.8007,-2.8016,-2.8005,-2.8005,-2.801,-2.801,-2.8011,-2.8013,0,-2.7546,-2.7594,-2.7634,-2.7667,-2.7696,-2.7736,-2.7758,-2.7793,-2.7823,-2.785,-2.7882,-2.7912,-2.7929,-2.7944,-2.7959,-2.7992,-2.7998,-2.7993,-2.8031,-2.8032,-2.802,-2.8006,-2.7994,-2.7994,-2.8014,-2.8014,-2.8014,0,-2.7544,-2.7581,-2.7618,-2.7673,-2.7687,-2.7706,-2.7748,-2.7774,-2.7815,-2.7836,-2.7864,-2.7892,-2.7921,-2.7932,-2.7972,-2.7968,-2.7986,-2.8005,-2.8006,-2.8011,-2.8023,-2.8011,-2.7995,-2.7995,-2.8016,-2.8016,-2.8016,0,-2.7509,-2.7568,-2.7599,-2.7619,-2.7683,-2.7696,-2.7723,-2.7765,-2.7788,-2.7824,-2.7839,-2.7877,-2.7898,-2.7926,-2.7964,-2.7969,-2.8001,-2.8015,-2.8019,-2.8018,-2.8023,-2.8022,-2.801,-2.8034,-2.8034,-2.8034,-2.8034,0,-2.7498,-2.752,-2.7584,-2.7603,-2.7628,-2.7673,-2.7697,-2.7727,-2.7765,-2.7791,-2.7826,-2.7849,-2.7898,-2.7926,-2.7956,-2.7985,-2.7993,-2.8011,-2.8019,-2.8008,-2.8006,-2.8021,-2.8022,-2.8034,-2.8034,-2.8034,-2.8034,0,-2.7463,-2.7507,-2.7543,-2.7602,-2.7618,-2.7634,-2.7684,-2.7704,-2.7736,-2.7768,-2.7778,-2.7828,-2.7863,-2.7905,-2.7952,-2.7973,-2.8,-2.8011,-2.7986,-2.7991,-2.7993,-2.7993,-2.799,-2.7993,-2.8013,-2.8013,-2.8013,0,-2.7453,-2.7471,-2.7533,-2.7554,-2.7581,-2.7613,-2.7638,-2.7683,-2.7707,-2.7758,-2.7771,-2.781,-2.7844,-2.7899,-2.7939,-2.7976,-2.7989,-2.7986,-2.7994,-2.7984,-2.799,-2.7989,-2.7991,-2.7983,-2.7982,-2.7982,-2.7982,0,-2.7432,-2.7454,-2.7489,-2.7532,-2.7561,-2.7596,-2.7633,-2.7647,-2.77,-2.7725,-2.7763,-2.7789,-2.784,-2.7879,-2.7922,-2.7949,-2.7974,-2.7979,-2.7982,-2.7971,-2.7957,-2.7966,-2.7981,-2.7978,-2.7979,-2.7979,-2.7979,-2.7979,-2.741,-2.7429,-2.7477,-2.7515,-2.7548,-2.7582,-2.7605,-2.7641,-2.7675,-2.7721,-2.7746,-2.7784,-2.7827,-2.7888,-2.7915,-2.7945,-2.7953,-2.7957,-2.7958,-2.7959,-2.7956,-2.7952,-2.7952,-2.7953,-2.7953,-2.7953,-2.7953,0,-2.7392,-2.7426,-2.746,-2.7512,-2.7543,-2.7566,-2.7609,-2.7632,-2.7666,-2.7705,-2.7739,-2.7783,-2.7821,-2.7866,-2.7906,-2.7922,-2.7935,-2.7931,-2.7931,-2.7937,-2.7946,-2.794,-2.792,-2.792,-2.792,-2.792,-2.792,-2.792,-2.7386,-2.742,-2.7448,-2.7499,-2.7532,-2.7572,-2.7594,-2.7626,-2.7658,-2.7707,-2.774,-2.7769,-2.7811,-2.7855,-2.7891,-2.7904,-2.7917,-2.791,-2.7926,-2.7933,-2.7936,-2.7938,-2.7933,-2.7913,-2.7913,-2.7915,-2.7915,-2.7915]}]]